Weather in Boguchar

Russia / Voronezh Oblast     49°56′07″N   40°33′32″E
temp.,
°C
wind,
m/s
gust,
m/s
humid.,
%
clouds,
%
prec.,
mm/h
press.,
hPa
HPBL,
m
25 february, thu
thu2500:00−12ssw368096 0.0 1038333
03:00−12ssw488198 0.0 1036359
06:00−11ssw5985100 0.1 1034413
09:00−10ssw6988100 0.1 1032406
12:00−7sw61086100 0.1 1030480
15:00−5wsw71388100 0.2 1027466
18:00−3sw81493100 0.1 1024351
21:00−1wsw71394100 0.6 1022420
26 february, fri
fri2600:00+1w71396100 0.2 1020343
03:00+2w61298100 1.1 1020353
06:00+2w51198100 0.2 1019286
09:00+2w4999100 0.3 1019199
12:00+3w51099100 0.0 1018276
15:00+3w61199100 0.0 1018362
18:00+3w61398100 0.0 1015419
21:00+3w61396100 0.1 1014392
27 february, sat
sat2700:00+3w61395100 0.1 1012422
03:00+2w61393100 0.1 1012454
06:00+1w51195100 0.0 1010461
09:00+2w51193100 0.1 1009495
12:00+3w61089100 0.1 1009728
15:00+1wnw51097100 0.3 1008565
18:000w499794 0.1 1007349
21:00+1w5119397 0.3 1008484
28 february, sun
sun2800:00+1wnw51097100 0.1 1007527
03:000wnw61095100 0.3 1009510
06:00−4nnw7117598 0.3 1010690
09:00−6nnw697399 0.3 1013756
12:00−5nnw6868100 0.0 1015769
15:00−5nnw6868100 0.0 1016788
18:00−6nnw6872100 0.0 1018779
21:00−6n5875100 0.0 1020730
1 march, mon
mon100:00−7nnw5777100 0.0 1022657
03:00−8nnw4677100 0.0 1023629
06:00−8nnw478099 0.0 1025598
09:00−8nnw467697 0.0 1027594
12:00−5nnw466673 0.0 1028647
15:00−4nnw466341 0.0 1028716
18:00−5nnw47738 0.0 1029633
21:00−5nnw26804 0.0 1031391